Regional Weather Roundup
Issued by NWS

Home | Current Version | Previous Version | Text Only | Print | Product List | Glossary On
Versions: 1 2 3 4 5 6 7 8 9 10 11 12 13 14 15 16 17 18 19 20 21 22 23 24 25 26 27 28 29 30 31 32 33 34 35 36 37 38 39 40 41 42 43 44 45 46 47 48 49 50
000
ASUS45 KABQ 290710
RWRNM
WEATHER ROUNDUP FOR NEW MEXICO
NATIONAL WEATHER SERVICE ALBUQUERQUE NM
100 AM MDT TUE JUL 29 2014

NOTE: "FAIR" MEANS FEW OR NO CLOUDS BELOW 12,000 FEET AGL WITH NO
       SIGNIFICANT WEATHER OR OBSTRUCTIONS TO VISION.

      THIS PRODUCT IS RELEASED AS TWO VERSIONS.  ONE VERSION NEAR
      THE TOP OF THE HOUR CONTAINING PRELIMINARY DATA FROM ALBUQUERQUE
      AND OTHER STATIONS.  A FINAL VERSION WITH ADDITIONAL DATA IS
      ISSUED ABOUT 10 MINUTES AFTER THE HOUR.

NMZ501-503-504-510>518-290800-
NORTHWEST PLATEAU/NORTHCENTRAL MOUNTAINS

CITY           SKY/WX    TMP DP  RH WIND       PRES   REMARKS
FARMINGTON     CLOUDY    64  60  87 NE3       30.33F
LOS ALAMOS     CLOUDY    62  54  75 S8        30.46F
SANTA FE       CLOUDY    63  56  78 E9        30.40F
TAOS           CLOUDY    61  54  77 CALM      30.46F
ANGEL FIRE     CLOUDY    56  54  93 CALM      30.55F

$$
NMZ402-403-502-505>509-290800-
WESTCENTRAL MOUNTAINS/SOUTHWEST MOUNTAINS

CITY           SKY/WX    TMP DP  RH WIND       PRES   REMARKS
GALLUP         CLOUDY    63  59  87 CALM      30.39F
SILVER CITY    MOCLDY    72  57  60 NE10      30.32F

$$
NMZ407-409-411-412-290800-
SOUTHERN DESERTS

CITY           SKY/WX    TMP DP  RH WIND       PRES   REMARKS
LORDSBURG      FAIR      70  63  78 E3        30.21S
DEMING         MOCLDY    74  64  71 E7        30.21F
LAS CRUCES     CLOUDY    73  63  72 N5        30.21F
HOLLOMAN AFB   MOCLDY    70  68  94 E8        30.23S
ALAMOGORDO     LGT RAIN  68  66  94 NE6       30.26F
T OR C         CLOUDY    74  60  61 CALM      30.26S

$$
NMZ519>523-290800-
CENTRAL VALLEYS/CENTRAL HIGHLANDS

CITY           SKY/WX    TMP DP  RH WIND       PRES   REMARKS
ALBUQUERQUE    LGT RAIN  71  61  70 NE12      30.33R
DOUBLE EAGLE   CLOUDY    66  60  80 NE8       30.37S
MORIARTY ARPT  TSTM      61  58  90 CALM      30.41F
CLINES CORNERS CLOUDY    59  57  93 SE5       30.44F
BELEN          CLOUDY    72  58  61 NE5       30.31R
SOCORRO        MOCLDY    77  56  47 S5        30.27S

$$
NMZ524>526-539-540-290800-
SOUTHCENTRAL MOUNTAINS

CITY           SKY/WX    TMP DP  RH WIND       PRES   REMARKS
RUIDOSO        CLOUDY    61  59  94 SE13      30.44F

$$
NMZ527>531-290800-
NORTHEAST HIGHLANDS/NORTHEAST PLAINS

CITY           SKY/WX    TMP DP  RH WIND       PRES   REMARKS
LAS VEGAS      LGT RAIN  59  57  93 SW6       30.43F
RATON          LGT RAIN  59  58  96 N3        30.40F
CLAYTON        CLOUDY    65  62  90 S7        30.33S FOG

$$
NMZ532>537-290800-
EASTCENTRAL PLAINS

CITY           SKY/WX    TMP DP  RH WIND       PRES   REMARKS
TUCUMCARI      MOCLDY    73  61  65 SW5       30.27S
CANNON AFB     MOCLDY    68  64  88 SE9       30.28F
CLOVIS AIRPORT NOT AVBL

$$
NMZ028-029-538-290800-
SOUTHEAST PLAINS

CITY           SKY/WX    TMP DP  RH WIND       PRES   REMARKS
ROSWELL        LGT RAIN  71  67  87 E10       30.22R
ARTESIA        CLOUDY    81  63  54 SE6       30.23R
CARLSBAD       PTCLDY    81  62  52 SE13      30.16F
HOBBS          PTCLDY    75  63  64 E12       30.23F


$$



USA.gov is the U.S. government's official web portal to all federal, state and local government web resources and services.